Content
SEND FEEDBACK

Daily
Averages
Monthly
Summary
United States of America

MALDEN, MISSOURI


Home > North America > United States > Missouri
Elevation: 89 meters     Latitude: 36 36N     Longitude: 089 59W

WEATHER
 
SELECT A DAY
Number of Records: 207,799;   Date Range: 1/1/95 - 8/28/14
 
SHARE

PRINT THIS DATA

[ ← Previous Day ]
WEATHER ALMANAC - 28 SEPTEMBER, 2013
[ Next Day → ]
[ °F ]   °C
Weather ElementAverageHighLow
Temperature21.6 °C28.9 °C (1:53 pm)16 °C (4:33 am)
Dewpoint15.6 °C18.3 °C (9:53 am)14 °C (4:33 am)
Humidity71.3 %90 % (3:53 am)46 % (1:53 pm)
Barometer1016.6 hPa1019 hPa (9:53 am)1014.9 hPa (4:53 pm)
Wind Speed8 km/h24.1 km/h (11:53 am)
Wind Gust31.5 km/h (1:53 pm)
Weather ElementAverage
Visibility12.1 km
Wind DirectionE (91.8 °)

Weather ElementTotal
Precipitation---
Cooling Degree Days4.1 (Base 18.3)
Growing Degree Days12.4 (Base 10)
Averaged from 28 records on 28 September, 2013
WEATHER CONDITIONS BREAKOUT
WIND DIRECTION BREAKOUT
WEATHER BY HOUR - 28 SEPTEMBER, 2013
[ °F ]   °C
Local TimeTemperatureDewpointHumidityBarometerVisibilityWind DirectionWind SpeedGust SpeedPrecipitationEventsConditions
1:53 AM17.8 °C15.6 °C87 %1016.3 hPa14.5 kmCalmClear
2:53 AM17.2 °C15 °C87 %1016.3 hPa11.3 kmCalmClear
3:53 AM16.1 °C14.4 °C90 %1016.3 hPa4 kmCalmClear
4:33 AM16 °C14 °C88 %1016.9 hPa8 kmCalmClear
4:53 AM16.1 °C14.4 °C90 %1016.6 hPa6.4 kmCalmScattered Clouds
5:04 AM16 °C14 °C88 %1016.9 hPa4 kmCalmMostly Cloudy
5:12 AM16 °C14 °C88 %1016.9 hPa6.4 kmCalmMostly Cloudy
5:53 AM16.1 °C14.4 °C90 %1017.3 hPa9.7 kmCalmPartly Cloudy
6:49 AM16 °C14 °C88 %1017.9 hPa3.2 kmCalmMostly Cloudy
6:53 AM16.1 °C14.4 °C90 %1017.9 hPa3.2 kmCalmMostly Cloudy
7:03 AM16 °C14 °C88 %1018.3 hPa8 kmCalmMostly Cloudy
7:53 AM18.3 °C16.1 °C87 %1018.3 hPa6.4 kmCalmMostly Cloudy
8:53 AM21.1 °C17.8 °C81 %1018.6 hPa16.1 kmSouth (190°)9.3 km/hOvercast
9:53 AM23.3 °C18.3 °C73 %1019 hPa16.1 kmVariable7.4 km/hOvercast
10:53 AM26.1 °C15.6 °C52 %1018.6 hPa16.1 kmSouth (190°)18.5 km/hMostly Cloudy
11:53 AM27.2 °C15.6 °C49 %1018.3 hPa16.1 kmSSW (200°)24.1 km/hPartly Cloudy
12:53 PM28.3 °C16.1 °C47 %1017.6 hPa16.1 kmSouth (180°)22.2 km/hClear
1:53 PM28.9 °C16.1 °C46 %1016.3 hPa16.1 kmSouth (170°)20.4 km/h31.5 km/hPartly Cloudy
2:53 PM28.9 °C16.1 °C46 %1015.6 hPa16.1 kmSSE (160°)16.7 km/h29.6 km/hPartly Cloudy
3:53 PM28.9 °C16.7 °C47 %1015.2 hPa14.5 kmSouth (170°)18.5 km/hMostly Cloudy
4:53 PM27.8 °C16.7 °C51 %1014.9 hPa16.1 kmSouth (170°)14.8 km/hPartly Cloudy
5:53 PM26.7 °C16.1 °C52 %1015.2 hPa16.1 kmSouth (170°)11.1 km/hOvercast
6:53 PM24.4 °C17.2 °C64 %1015.2 hPa16.1 kmSE (140°)9.3 km/hMostly Cloudy
7:53 PM23.3 °C16.7 °C66 %1015.2 hPa14.5 kmSSE (150°)9.3 km/hMostly Cloudy
8:53 PM23.3 °C16.1 °C64 %1015.9 hPa14.5 kmSSE (160°)11.1 km/hMostly Cloudy
9:53 PM22.8 °C16.1 °C66 %1015.6 hPa16.1 kmSSE (160°)13 km/hMostly Cloudy
10:53 PM22.8 °C16.1 °C66 %1015.6 hPa16.1 kmSouth (170°)9.3 km/hOvercast
11:53 PM22.8 °C16.1 °C66 %1015.6 hPa16.1 kmSouth (190°)11.1 km/hMostly Cloudy
Hourly data recorded from KPOF, located 0 kilometers away from Malden, Missouri







STORIES FROM OUR PARTNERS